SWAMPSAT-2 (45115 NORAD) Tracking and Keplerian Element Data

This shows tracking and keplerian element data for the satellite.

Feedback or suggestion? Click here.




ElementValue
Catalog45115
NameSWAMPSAT-2
Epoch Orbit323
Epoch Day52.93478643
Epoch Year2020
RAAN206.2148
Inclination51.6413
Eccentricity0.0013089
Argument of Perigee1.1092
Mean Anonmoly358.9916
Mean Motion15.33098919
Decay Rate9.87E-05
L11 45115U 19071E 20052.93478643 .00009870 00000-0 31453-3 0 9990
L22 45115 51.6413 206.2148 0013089 1.1092 358.9916 15.33098919 3232

Live tracking and technical data element details for SWAMPSAT-2 (NORAD 45115). SWAMPSAT-2 can be tracked NOW for your location showing map with azimuth and elevation plus other details from your city location.

Track the satellite on the map from your city or location and see movement details for azimuth, elevation, latitude, longitude, range, height, and movement on the map or in text.







IsCatalogInMostPopularTable: catalog: 45115, numindb: 9
Update: records affected: 1



GetName: 45115 SWAMPSAT-2

Hit Count: updated at: Mon, 24 Feb 2020 18:26:12 GMT